Tracking 25693 objects as of 1-Jul-2022
HD Live streaming from Space Station
objects crossing your sky now

DMSP 5D-2 F13 DEB

Track DMSP 5D-2 F13 DEB now!
10-day predictions


NORAD ID: 40409
Int'l Code: 1995-015W
Perigee: 835.3 km
Apogee: 836.8 km
Inclination: 98.8 °
Period: 101.5 minutes
Semi major axis: 7207 km
RCS: Unknown
Launch date: March 24, 1995
Source: United States (US)
Launch site: AIR FORCE WESTERN TEST RANGE (AFWTR)

Note: This is SATELLITE DEBRIS
aabbcc
Your satellite tracking list
Your tracking list is empty




NASA's NSSDC Master Catalog

Two Line Element Set (TLE):
1 40409U 95015W   22181.77143773  .00000331  00000-0  18023-3 0  9994
2 40409  98.7970 191.8138 0001086  37.1406 322.9844 14.18946453379989
Source of the keplerian elements: AFSPC